sat.trackr.live / text

‹ back to catalog

ASTRA 5B (EGNOS/PRN 123)

NORAD 39617 · 2014-011B

PAYLOAD ACTIVE UNKNOWN

§ Identity

Operator
Country
SES
Launch date
2014-03-22
Launch site
FRGUI
Launch vehicle
Mass (kg)
RCS (m²)
21.62

Purposes: comms, nav

External: N2YO · Heavens-Above · Gunter

§ Orbital elements

Epoch: 2026-09-19T23:55:33.805056Z

Period
1,436.07 min
Inclination
0.0876°
Eccentricity
0.0002988
Mean motion
1.00273446 rev/d
Perigee alt
35,773.5 km
Apogee alt
35,798.7 km
Semi-major
42,164.3 km
B*
0.0000e+0
RAAN
299.4146°
Arg perigee
257.0855°
Mean anomaly
184.7878°
Rev number
4,561

§ Raw data

ASTRA 5B (EGNOS/PRN 123)1 39617U 14011B   26262.99691904  .00000133  00000+0  00000+0 0  99932 39617   0.0876 299.4146 0002988 257.0855 184.7878  1.00273446 45619

JSON: /api/v1/satellites/39617 · /tle

For live sub-satellite position, see the globe view (requires WebGL).

§ Visibility from observer

Set your observer location to see the next 7 days of passes ≥ 10°. The values pass through the URL so the page stays shareable.

No JS? Fill the form by hand. The geolocation button needs JavaScript.